Regional Weather Roundup
Issued by NWS

Home | Current Version | Previous Version | Text Only | Print | Product List | Glossary On
Versions: 1 2 3 4 5 6 7 8 9 10 11 12 13 14 15 16 17 18 19 20 21 22 23 24 25 26 27 28 29 30 31 32 33 34 35 36 37 38 39 40 41 42 43 44 45 46 47 48 49 50
000
ASUS43 KMKX 040500
RWRWI

WISCONSIN REGIONAL WEATHER ROUNDUP
NATIONAL WEATHER SERVICE MILWAUKEE/SULLIVAN WI
1200 AM CDT FRI SEP 04 2015

NOTE: "FAIR" INDICATES FEW OR NO CLOUDS BELOW 12,000 FEET WITH NO
SIGNIFICANT WEATHER AND/OR OBSTRUCTIONS TO VISIBILITY.

WIZ001-002-006>008-014>016-023>028-040600-
NORTHWEST WISCONSIN

CITY           SKY/WX    TMP DP  RH WIND       PRES   REMARKS
SUPERIOR ARPT  CLEAR     58  55  92 E7        29.99R
ASHLAND        FOG       52  52 100 CALM      30.01R VSB 1/2
HAYWARD        CLEAR     64  62  93 NE5       30.00R
SIREN          CLEAR     69  66  92 E5        29.96S
CUMBERLAND     CLEAR     66  64  94 E7        29.98R
RICE LAKE      CLEAR     67  63  89 SE3       29.99R
CHETEK         CLEAR     67  65  95 MISG      29.98R
LADYSMITH      CLEAR     66  65  95 E5        30.01S
EAU CLAIRE     CLOUDY    71  65  81 E6        29.96R
MENOMONIE      PTCLDY    70  66  89 E5        29.96S
NEW RICHMOND   CLEAR     70  65  84 SE7       29.94S
OSCEOLA        PTCLDY    71  68  91 E6        29.96S
$$

WIZ003>005-009-010-017-018-040600-
NORTH CENTRAL WISCONSIN

CITY           SKY/WX    TMP DP  RH WIND       PRES   REMARKS
MANITOWISH WTR FOG       58  58 100 CALM      30.04R VSB 3/4
ARBOR VITAE    CLEAR     63  62  96 CALM      30.04R
WOODRUFF       CLEAR     63  62  96 CALM      30.04R
RHINELANDER    CLEAR     63  62  97 CALM      30.05R
EAGLE RIVER    CLEAR     65  65 100 CALM      30.04R
LAND O LAKES   CLEAR     60  60  99 CALM      30.06R FOG
PHILLIPS       CLEAR     62  62 100 CALM      30.02S
TOMAHAWK       PTCLDY    57  56  96 CALM      30.03S
MEDFORD        FOG       59  59 100 CALM      30.02R VSB 1/4
MERRILL        PTCLDY    58  58 100 E3        30.03R FOG
$$

WIZ029-030-035-036-043>047-040600-
CENTRAL WISCONSIN

CITY           SKY/WX    TMP DP  RH WIND       PRES   REMARKS
WAUSAU         CLEAR     63  62  97 CALM      30.00R
MOSINEE        CLEAR     63  63 100 NE5       30.02R
MARSHFIELD     CLEAR     65  61  87 E3        30.00S
STEVENS POINT  CLEAR     59  58  98 CALM      30.01R
WAUPACA        FOG       64  64  97 CALM      29.99R VSB 1/2
WAUTOMA        NOT AVBL
WISC RAPIDS    CLEAR     64  62  93 SW3       30.00S
CAMP DOUGLAS   CLEAR     66  66 100 E1        29.97S
$$

WIZ011>013-019>022-031-037>040-048>050-040600-
NORTHEAST WISCONSIN

CITY           SKY/WX    TMP DP  RH WIND       PRES   REMARKS
ANTIGO         CLEAR     64  62  93 E3        30.03S
SHAWANO        NOT AVBL
OCONTO         CLEAR     61  61 100 CALM      29.97S
STURGEON BAY   PTCLDY    64  63  94 NE5       30.00R
GREEN BAY      CLEAR     63  61  93 CALM      29.98R
MANITOWOC      NOT AVBL
APPLETON       CLEAR     64  63  94 N5        29.97S
CLINTONVILLE   FOG       63  63 100 CALM      29.99S VSB 1
OSHKOSH        CLEAR     63  61  93 W3        29.97S
$$

WIZ032>034-041-042-053>061-040600-
SOUTHWEST WISCONSIN

CITY           SKY/WX    TMP DP  RH WIND       PRES   REMARKS
LA CROSSE      CLEAR     74  68  81 SE6       29.94R
SPARTA         CLEAR     70  63  78 CALM      29.97S
VIROQUA          N/A     70  70  98 E8        29.97S
BOSCOBEL       FAIR      75  68  78 VRB3      29.95R
PRAIRIE DU CHI CLEAR     77  73  87 E3        29.92S
PLATTEVILLE    CLEAR     74  72  93 E9        29.95S
$$

WIZ056-057-062-063-064-067-068-040600-
SOUTH CENTRAL WISCONSIN

CITY           SKY/WX    TMP DP  RH WIND       PRES   REMARKS
REEDSBURG      CLEAR     69  67  94 CALM      29.97S
BARABOO/DELLS  CLOUDY    68  65  90 CALM      29.97F
LONE ROCK      NOT AVBL
MINERAL POINT  CLEAR     72  68  88 E7        29.97S
MADISON        CLOUDY    71  66  84 NE5       29.97S
MIDDLETON      CLOUDY    70  68  93 NE5       29.98S
WATERTOWN      CLOUDY    71  71 100 CALM      29.97S
MONROE         CLEAR     70  68  94 NE7       29.96S
JANESVILLE     CLEAR     72  70  94 CALM      29.95S
$$

WIZ051-052-058>065-066-070>072-040600-
SOUTHEAST WISCONSIN

CITY           SKY/WX    TMP DP  RH WIND       PRES   REMARKS
MILWAUKEE      MOCLDY    67  63  87 N3        29.97R
WAUKESHA       CLOUDY    66  63  88 CALM      29.98S
MILWAUKEE/TIMM MOCLDY    66  63  88 CALM      29.98S
RACINE         CLOUDY    66  62  87 N3        29.99S
BURLINGTON     CLOUDY    67  64  89 NE3       29.97R
KENOSHA        CLOUDY    68  65  90 NE3       29.98R
FOND DU LAC    CLEAR     64  63  96 CALM      29.97S
SHEBOYGAN      CLEAR     62  61  96 CALM      29.96S FOG
WEST BEND      PTCLDY    63  61  94 CALM      29.97S FOG
JUNEAU         CLOUDY    66  65  96 CALM      29.98S
$$

LSZ147-162-040600-
LAKE SUPERIOR

STATION/POSITION TIME  TEMP    WIND        PRES    WAVE
                       AIR SEA DIR/SP/G            HT/PER
                 (UTC) (F)     (DEG/KT/KT) (MB)    (FT/S)
W MID LAKE BUOY  0350   60 57   80/ 10/ 12 1015.8R   1/ 3
DEVILS ISLAND    0400   59      70/  7/  8 1015.8R
PORT WING        0400   56      40/  9/ 10 1015.6
SAXON HARBOR     0400   59        CALM     1014.9S
$$

LMZ867-665-643>646-040600-
LAKE MICHIGAN

STATION/POSITION TIME  TEMP    WIND        PRES    WAVE
                       AIR SEA DIR/SP/G            HT/PER
                 (UTC) (F)     (DEG/KT/KT) (MB)    (FT/S)
CHAMBERS ISLAND  0400   65      10/  7/  8 1014.9S
S GREEN BAY BUOY 0400   68 66   40/ 10/ 14 1016.1
N MID LAKE BUOY  0350   68 66   40/ 10/ 10 1014.2S   2/ 3
NORTHPORT PIER   0400   68      40/  7/ 10 1014.9S
SISTER BAY       0441   68      20/  5/  9   N/A
ALGOMA LAKESHORE 0329          330/  5/  6   N/A
KEWAUNEE LAKESHO 0400   67      10/  8/ 11 1013.4F
SHEBOYGAN LAKESH 0400   65     340/  9/  9 1014.4S
PORT WASHINGTON  0440   66     310/  3/  5 1015.2R
ATWATER BUOY     0400   60     270/  4/  4 1016.2R
MILWAUKEE LAKESH 0410   67     350/  4/  5   N/A
S MID LAKE BUOY  0350   69 71  350/ 10/ 12 1013.4R   1/ 3
KENOSHA   LAKESH 0400   67      10/  8/  9 1014.6R
$$

TC  - TEMPERATURE IN CELSIUS
VSB - VISIBILITY IN STATUTE MILES
WCI - WIND CHILL INDEX
HX  - HEAT INDEX



USA.gov is the U.S. government's official web portal to all federal, state and local government web resources and services.